User: anonymous   Login
Location: Feydey
(46.3431°N, 7.0106°E)
Time: 03:56:51
(UTC+00:00)
Language:

Cosmos 1900 - Orbit

View from above orbital plane
View from above orbital plane
View from above satellite
View from above satellite

Ground track
Ground track

The orbit data is extracted from the following two-line orbital elements,

1 18665U 87101A   21264.45595632 -.00000059  00000-0  10208-4 0  9997
2 18665  66.0846 174.9283 0026415  84.2142 276.1974 14.54511884796864
Epoch (UTC): 21 September 2021 10:56:34
Eccentricity: 0.0026415
inclination: 66.0846°
perigee height: 692 km
apogee height: 729 km
right ascension of ascending node: 174.9283°
argument of perigee: 84.2142°
revolutions per day: 14.54511884
mean anomaly at epoch: 276.1974°
orbit number at epoch: 79686

The dashed part of the orbit path shows where the satellite is in the earth's shadow,  

DLR